Tracking 30986 objects as of 9-Jul-2025
HD Live streaming from Space Station
objects crossing your sky now

STARLINK-30136

Track STARLINK-30136 now!
10-day predictions
STARLINK-30136 is classified as:


NORAD ID: 56844
Int'l Code: 2023-079X
Perigee: 565.6 km
Apogee: 566.9 km
Inclination: 43.0 °
Period: 95.8 minutes
Semi major axis: 6937 km
RCS: Unknown
Launch date: June 4, 2023
Source: United States (US)
Launch site: AIR FORCE EASTERN TEST RANGE (AFETR)
Your satellite tracking list
Your tracking list is empty




NASA's NSSDC Master Catalog

Two Line Element Set (TLE):
1 56844U 23079X   25189.73861545 -.00003562  00000-0 -24877-3 0  9991
2 56844  43.0055 353.1885 0000890 283.8105  76.2639 15.02529620116185
Source of the keplerian elements: AFSPC